• In Deutschland
  • Länderverzeichnis
  • Für 7 Tage
  • Wassertemperatur
  • Satellitenkarten
  • Wetterkarte
  • Widgets
  • user-avatar
    Anmelden

    Stündliche Wetter Shaki

    Heute, 29 März, Mittwoch

    Zeit Temperatur Niederschläge Wind Luftdruck Luftfeuchtigkeit
    00:00 +4°C° 0 mm 3 m/S 735 mmHg 44%
    01:00 +4°C° 0 mm 4 m/S 735 mmHg 43%
    02:00 +4°C° 0 mm 4 m/S 735 mmHg 41%
    03:00 +4°C° 0 mm 4 m/S 735 mmHg 40%
    04:00 +4°C° 0 mm 4 m/S 735 mmHg 40%
    05:00 +4°C° 0 mm 4 m/S 735 mmHg 40%
    06:00 +4°C° 0 mm 4 m/S 735 mmHg 40%
    07:00 +6°C° 0 mm 4 m/S 735 mmHg 37%
    08:00 +8°C° 0 mm 5 m/S 735 mmHg 34%
    09:00 +12°C° 0 mm 5 m/S 735 mmHg 31%
    10:00 +13°C° 0 mm 5 m/S 735 mmHg 30%
    11:00 +14°C° 0 mm 5 m/S 735 mmHg 29%
    12:00 +15°C° 0 mm 5 m/S 735 mmHg 27%
    13:00 +16°C° 0 mm 5 m/S 735 mmHg 28%
    14:00 +16°C° 0 mm 5 m/S 735 mmHg 28%
    15:00 +16°C° 0 mm 5 m/S 735 mmHg 29%
    16:00 +14°C° 0 mm 4 m/S 736 mmHg 32%
    17:00 +12°C° 0 mm 3 m/S 736 mmHg 36%
    18:00 +10°C° 0 mm 2 m/S 737 mmHg 40%
    19:00 +9°C° 0 mm 2 m/S 738 mmHg 42%
    20:00 +8°C° 0 mm 2 m/S 738 mmHg 43%
    21:00 +8°C° 0 mm 1 m/S 739 mmHg 45%
    22:00 +7°C° 0 mm 2 m/S 739 mmHg 53%
    23:00 +6°C° 0 mm 2 m/S 740 mmHg 62%

    Morgen, 30 März, Donnerstag

    Zeit Temperatur Niederschläge Wind Luftdruck Luftfeuchtigkeit
    00:00 +4°C° 0 mm 3 m/S 740 mmHg 70%
    01:00 +5°C° 0 mm 2 m/S 740 mmHg 75%
    02:00 +4°C° 0 mm 2 m/S 740 mmHg 79%
    03:00 +5°C° 0 mm 1 m/S 740 mmHg 84%
    04:00 +5°C° 0 mm 1 m/S 740 mmHg 84%
    05:00 +5°C° 0 mm 1 m/S 740 mmHg 85%
    06:00 +4°C° 0 mm 1 m/S 740 mmHg 86%
    07:00 +7°C° 0 mm 1 m/S 740 mmHg 76%
    08:00 +9°C° 0 mm 1 m/S 740 mmHg 65%
    09:00 +12°C° 0 mm 1 m/S 740 mmHg 55%
    10:00 +13°C° 0 mm 1 m/S 739 mmHg 51%
    11:00 +14°C° 0 mm 1 m/S 738 mmHg 46%
    12:00 +16°C° 0 mm 1 m/S 737 mmHg 41%
    13:00 +16°C° 0 mm 1 m/S 736 mmHg 39%
    14:00 +18°C° 0 mm 1 m/S 736 mmHg 37%
    15:00 +18°C° 0 mm 1 m/S 735 mmHg 35%
    16:00 +15°C° 0 mm 1 m/S 735 mmHg 40%
    17:00 +13°C° 0 mm 1 m/S 735 mmHg 44%
    18:00 +11°C° 0 mm 1 m/S 735 mmHg 49%
    19:00 +11°C° 0 mm 1 m/S 735 mmHg 46%
    20:00 +10°C° 0 mm 1 m/S 735 mmHg 44%
    21:00 +8°C° 0 mm 2 m/S 736 mmHg 41%
    22:00 +8°C° 0 mm 2 m/S 736 mmHg 39%
    23:00 +8°C° 0 mm 2 m/S 736 mmHg 38%

    übermorgen, 31 März, Freitag

    Zeit Temperatur Niederschläge Wind Luftdruck Luftfeuchtigkeit
    00:00 +8°C° 0 mm 2 m/S 735 mmHg 36%
    01:00 +8°C° 0 mm 2 m/S 735 mmHg 37%
    02:00 +8°C° 0 mm 2 m/S 735 mmHg 38%
    03:00 +7°C° 0 mm 2 m/S 735 mmHg 39%
    04:00 +7°C° 0 mm 2 m/S 736 mmHg 41%
    05:00 +7°C° 0 mm 2 m/S 736 mmHg 43%
    06:00 +7°C° 0 mm 2 m/S 736 mmHg 45%
    07:00 +10°C° 0 mm 2 m/S 737 mmHg 39%
    08:00 +14°C° 0 mm 2 m/S 737 mmHg 34%
    09:00 +16°C° 0 mm 1 m/S 737 mmHg 29%
    10:00 +18°C° 0 mm 1 m/S 737 mmHg 27%
    11:00 +19°C° 0 mm 1 m/S 737 mmHg 26%
    12:00 +20°C° 0 mm 1 m/S 738 mmHg 25%
    13:00 +19°C° 0 mm 1 m/S 738 mmHg 26%
    14:00 +18°C° 0 mm 2 m/S 738 mmHg 27%
    15:00 +18°C° 0 mm 2 m/S 738 mmHg 28%
    16:00 +16°C° 0 mm 2 m/S 738 mmHg 34%
    17:00 +15°C° 0 mm 2 m/S 739 mmHg 40%
    18:00 +13°C° 0 mm 2 m/S 739 mmHg 47%
    19:00 +11°C° 0,5 mm 3 m/S 740 mmHg 57%
    20:00 +10°C° 0,5 mm 3 m/S 741 mmHg 66%
    21:00 +8°C° 0,5 mm 4 m/S 741 mmHg 76%
    22:00 +7°C° 1 mm 4 m/S 741 mmHg 79%
    23:00 +7°C° 1 mm 4 m/S 741 mmHg 81%

    1 April, Samstag

    Zeit Temperatur Niederschläge Wind Luftdruck Luftfeuchtigkeit
    00:00 +6°C° 1 mm 4 m/S 742 mmHg 84%
    01:00 +7°C° 0,6 mm 3 m/S 742 mmHg 85%
    02:00 +5°C° 0,6 mm 3 m/S 742 mmHg 85%
    03:00 +5°C° 0,6 mm 3 m/S 742 mmHg 86%
    04:00 +4°C° 0,1 mm 3 m/S 742 mmHg 87%
    05:00 +4°C° 0,1 mm 3 m/S 742 mmHg 88%
    06:00 +4°C° 0,1 mm 3 m/S 742 mmHg 88%
    07:00 +5°C° 0,1 mm 4 m/S 742 mmHg 85%
    08:00 +5°C° 0,1 mm 4 m/S 742 mmHg 81%
    09:00 +6°C° 0,1 mm 4 m/S 742 mmHg 77%
    10:00 +6°C° 0,2 mm 4 m/S 741 mmHg 77%
    11:00 +7°C° 0,2 mm 4 m/S 741 mmHg 76%
    12:00 +7°C° 0,2 mm 4 m/S 741 mmHg 75%
    13:00 +7°C° 0,2 mm 4 m/S 740 mmHg 74%
    14:00 +8°C° 0,2 mm 3 m/S 740 mmHg 73%
    15:00 +9°C° 0,2 mm 3 m/S 739 mmHg 73%
    16:00 +8°C° 0 mm 2 m/S 739 mmHg 76%
    17:00 +7°C° 0 mm 2 m/S 739 mmHg 80%
    18:00 +8°C° 0 mm 1 m/S 739 mmHg 84%
    19:00 +7°C° 0 mm 1 m/S 739 mmHg 86%
    20:00 +6°C° 0 mm 1 m/S 739 mmHg 89%
    21:00 +6°C° 0 mm 1 m/S 739 mmHg 91%
    22:00 +5°C° 0 mm 1 m/S 739 mmHg 91%
    23:00 +5°C° 0 mm 1 m/S 738 mmHg 92%

    2 April, Sonntag

    Zeit Temperatur Niederschläge Wind Luftdruck Luftfeuchtigkeit
    00:00 +5°C° 0 mm 1 m/S 738 mmHg 92%
    01:00 +5°C° 0,1 mm 1 m/S 738 mmHg 92%
    02:00 +5°C° 0,1 mm 1 m/S 738 mmHg 92%
    03:00 +5°C° 0,1 mm 1 m/S 738 mmHg 93%
    04:00 +5°C° 0,1 mm 1 m/S 738 mmHg 93%
    05:00 +5°C° 0,1 mm 1 m/S 738 mmHg 93%
    06:00 +5°C° 0,1 mm 1 m/S 738 mmHg 93%
    07:00 +6°C° 0,1 mm 1 m/S 738 mmHg 87%
    08:00 +8°C° 0,1 mm 1 m/S 739 mmHg 82%
    09:00 +8°C° 0,1 mm 2 m/S 739 mmHg 76%
    10:00 +9°C° 0,1 mm 2 m/S 739 mmHg 72%
    11:00 +10°C° 0,1 mm 2 m/S 739 mmHg 68%
    12:00 +12°C° 0,1 mm 2 m/S 739 mmHg 64%
    13:00 +11°C° 0,1 mm 3 m/S 739 mmHg 64%
    14:00 +12°C° 0,1 mm 3 m/S 738 mmHg 64%
    15:00 +12°C° 0,1 mm 3 m/S 738 mmHg 64%
    16:00 +11°C° 0,1 mm 3 m/S 739 mmHg 70%
    17:00 +10°C° 0,1 mm 3 m/S 739 mmHg 76%
    18:00 +9°C° 0,1 mm 3 m/S 739 mmHg 82%
    19:00 +8°C° 0 mm 3 m/S 740 mmHg 84%
    20:00 +7°C° 0 mm 2 m/S 740 mmHg 87%
    21:00 +6°C° 0 mm 2 m/S 741 mmHg 90%
    22:00 +6°C° 0 mm 2 m/S 741 mmHg 90%
    23:00 +5°C° 0 mm 2 m/S 741 mmHg 91%

    3 April, Montag

    Zeit Temperatur Niederschläge Wind Luftdruck Luftfeuchtigkeit
    00:00 +4°C° 0 mm 2 m/S 740 mmHg 91%
    01:00 +4°C° 0 mm 2 m/S 740 mmHg 92%
    02:00 +4°C° 0 mm 1 m/S 740 mmHg 92%
    03:00 +3°C° 0 mm 1 m/S 740 mmHg 92%
    04:00 +4°C° 0 mm 1 m/S 741 mmHg 92%
    05:00 +4°C° 0 mm 1 m/S 741 mmHg 91%
    06:00 +4°C° 0 mm 1 m/S 741 mmHg 90%
    07:00 +6°C° 0 mm 1 m/S 741 mmHg 83%
    08:00 +7°C° 0 mm 2 m/S 742 mmHg 76%
    09:00 +9°C° 0 mm 2 m/S 742 mmHg 68%
    10:00 +10°C° 0 mm 2 m/S 741 mmHg 65%
    11:00 +12°C° 0 mm 2 m/S 741 mmHg 62%
    12:00 +13°C° 0 mm 2 m/S 741 mmHg 59%
    13:00 +14°C° 0 mm 2 m/S 741 mmHg 58%
    14:00 +13°C° 0 mm 3 m/S 740 mmHg 58%
    15:00 +13°C° 0 mm 3 m/S 740 mmHg 57%
    16:00 +13°C° 0 mm 2 m/S 740 mmHg 64%
    17:00 +12°C° 0 mm 2 m/S 741 mmHg 71%
    18:00 +9°C° 0 mm 2 m/S 741 mmHg 78%
    19:00 +8°C° 0 mm 2 m/S 741 mmHg 81%
    20:00 +7°C° 0 mm 2 m/S 741 mmHg 84%
    21:00 +6°C° 0 mm 2 m/S 741 mmHg 86%
    22:00 +6°C° 0 mm 2 m/S 741 mmHg 86%
    23:00 +5°C° 0 mm 2 m/S 741 mmHg 87%
    Mehr zeigen